Regional Weather Roundup
Issued by NWS

Home | Current Version | Previous Version | Text Only | Print | Product List | Glossary Off
Versions: 1 2 3 4 5 6 7 8 9 10 11 12 13 14 15 16 17 18 19 20 21 22 23 24 25 26 27 28 29 30 31 32 33 34 35 36 37 38 39 40 41 42 43 44 45 46 47 48 49 50

000
ASUS44 KMEG 031500
RWRTN
TENNESSEE HOURLY STATE WEATHER ROUNDUP
NATIONAL WEATHER SERVICE MEMPHIS TN
1000 AM CDT FRI JUL 03 2015

TNZ002-004-019-021-049-052-054-088>092-031600-
WEST TENNESSEE

CITY           SKY/WX    TMP DP  RH WIND       PRES   REMARKS
MEMPHIS INTL   LGT RAIN  74  72  93 S6        29.96S
NWS MEMPHIS      N/A     71 N/A N/A MISG        N/A
JACKSON        CLOUDY    76  71  85 SW7       29.96R
DYERSBURG        N/A    N/A N/A N/A MISG        N/A
PARIS          CLOUDY    73  68  83 SW8       29.93R
LEXINGTON      MOSUNNY   73  70  88 W7        29.95R
$$

TNZ008-025-027-028-033-062-065-066-031600-
NORTH MIDDLE TENNESSEE

CITY           SKY/WX    TMP DP  RH WIND       PRES   REMARKS
NASHVILLE      PTSUNNY   76  68  76 SW6       29.91S
CLARKSVILLE    CLOUDY    74  69  85 SW8       29.90R
COOKEVILLE       N/A     81  73  78 SW10      29.92S
CROSSVILLE     CLOUDY    73  66  78 W12G24    29.96S
$$

TNZ061-075-076-078-094-096-097-031600-
SOUTH MIDDLE TENNESSEE

CITY           SKY/WX    TMP DP  RH WIND       PRES   REMARKS
FAYETTEVILLE   CLOUDY    70  70 100 SW13      29.97R
TULLAHOMA      CLOUDY    70  66  88 SW10      29.97S
WINCHESTER     CLOUDY    70  68  94 SW7       29.98R VSB 1/2
COLUMBIA       CLOUDY    73  72  94 SW7       29.93R
$$

TNZ017-018-042-046-047-031600-
NORTHEAST TENNESSEE

CITY           SKY/WX    TMP DP  RH WIND       PRES   REMARKS
TRI CITIES     CLOUDY    76  68  76 S10       29.95R
ELIZABETHTON   PTSUNNY   73  66  78 E5        29.96R
$$

TNZ012-013-036-069-073-074-031600-
CENTRAL EAST TENNESSEE

CITY           SKY/WX    TMP DP  RH WIND       PRES   REMARKS
KNOXVILLE      CLOUDY    73  68  84 SW12      29.92S
OAK RIDGE      CLOUDY    73  70  90 VRB3      29.93S
GATLINBURG     MOSUNNY   73  66  78 CALM      29.92F
$$

TNZ083-085-099-031600-
SOUTHEAST TENNESSEE

CITY           SKY/WX    TMP DP  RH WIND       PRES   REMARKS
CHATTANOOGA    LGT RAIN  73  69  87 S6        29.97R
$$

SKY/WX REPORTED AS FAIR MEANS FEW OR NO CLOUDS BELOW
12 THOUSAND FEET.




USA.gov is the U.S. government's official web portal to all federal, state and local government web resources and services.